Wind_Speed
9 10 10 11 12 13 14 14 14 14 15 15 15 15 15 15 16 16 17 17 17 18 17 17 16 14 13 12 10 10 9 10 10 9 9 8 6 5 5 4 5 5 6
9 9 10 10 12 13 13 14 13 13 13 13 13 14 14 14 14 15 15 16 17 17 17 17 16 14 13 11 10 9 8 8 8 8 7 7 6 5 4 3 3 4 4
8 9 9 10 11 12 12 12 13 12 12 12 12 12 12 12 12 13 13 14 15 15 15 15 15 14 13 11 10 9 8 7 7 7 6 6 5 4 3 3 2 2 2
8 8 8 9 10 11 11 11 12 11 11 11 11 11 10 11 11 11 12 12 13 14 13 12 12 12 11 11 10 9 8 7 6 6 5 5 5 4 3 3 2 1 1
7 8 8 9 9 10 10 11 11 11 10 10 10 10 10 10 10 10 11 12 12 12 12 11 10 10 10 9 9 9 8 8 7 6 5 5 5 4 4 3 3 2 1
8 8 9 10 10 10 10 10 10 10 10 10 10 9 9 10 10 10 11 11 11 11 11 10 9 9 8 8 8 7 7 7 7 7 7 6 5 5 5 4 4 3 3
10 10 10 11 11 11 10 10 10 10 10 10 10 10 10 10 10 11 11 11 11 11 10 9 9 9 8 7 7 6 6 6 7 7 7 7 6 6 6 5 5 4 4
11 11 11 11 11 11 11 11 11 11 11 11 11 10 11 11 11 11 11 11 11 11 11 10 10 9 9 9 8 7 6 6 6 7 7 7 7 7 7 6 6 6 6
11 12 12 12 12 12 12 12 12 12 12 12 12 12 12 12 12 12 12 12 12 12 12 11 11 10 10 10 10 9 8 8 8 7 7 7 7 7 7 7 7 7 7
11 12 13 13 13 14 14 14 13 14 14 13 13 13 13 14 14 14 14 14 14 13 13 13 13 12 12 12 12 11 11 11 11 11 10 9 8 8 8 8 8 9 8
13 13 14 14 14 15 15 16 16 17 16 16 16 16 16 16 16 16 16 17 16 16 16 16 15 15 14 14 14 14 14 14 14 14 14 13 12 11 10 10 9 10 10
16 17 17 17 17 17 18 19 19 20 20 20 19 19 19 19 19 19 19 19 19 19 19 19 19 19 18 17 17 17 17 17 17 17 17 17 16 15 14 13 12 12 11
19 20 20 20 21 21 21 22 23 23 23 23 24 23 23 23 22 22 23 23 23 23 23 23 23 23 22 22 21 20 20 20 20 20 20 20 20 19 18 17 16 15 14
21 22 23 24 25 25 25 26 27 27 28 28 28 28 27 27 27 26 26 27 27 27 27 28 28 28 27 26 25 25 24 24 23 23 23 23 23 23 22 21 21 20 19
24 25 26 27 27 28 29 30 31 31 31 31 31 32 32 32 31 31 30 31 31 32 32 32 33 33 32 31 30 29 28 27 27 26 26 26 26 26 25 24 25 24 23
25 26 27 28 29 30 31 32 33 33 34 34 33 34 35 35 35 35 34 34 34 35 36 36 37 37 36 35 34 33 32 30 30 30 29 28 28 27 27 27 26 27 26
27 27 28 29 29 30 32 33 34 33 33 34 35 36 37 37 37 38 37 37 37 38 39 39 40 40 40 40 37 37 36 34 33 33 32 31 30 30 30 29 29 30 30
28 29 29 29 30 31 32 32 33 33 33 34 35 36 37 38 38 38 39 39 40 41 41 41 42 42 42 42 41 40 37 37 36 35 34 33 32 31 32 31 32 32 32
30 31 31 31 31 31 31 32 32 33 34 34 34 36 37 37 38 40 40 40 41 42 42 42 43 43 43 43 42 40 38 38 37 37 36 35 34 33 33 33 33 33 34
32 31 31 31 32 32 32 32 32 33 33 34 35 35 36 37 38 39 40 41 42 43 43 44 43 43 42 41 39 37 36 35 35 36 36 35 36 35 34 34 35 34 34
33 32 32 32 33 33 33 32 32 32 32 33 34 35 36 37 38 39 40 41 42 42 42 43 43 43 42 40 39 36 33 32 32 32 33 34 35 35 35 34 34 34 34
32 31 32 33 33 32 31 31 31 31 30 31 32 34 35 36 37 38 39 40 42 42 41 41 42 41 40 40 38 34 31 30 30 31 31 32 33 34 33 33 33 33 34
31 33 34 34 33 32 31 31 31 31 31 31 31 33 34 36 37 38 39 40 41 41 41 40 40 39 38 37 36 33 31 30 30 30 31 32 33 33 32 32 31 31 32
32 33 34 34 33 32 31 31 32 32 32 33 33 34 35 36 36 38 38 39 39 40 40 39 39 38 37 35 34 33 33 32 31 31 32 33 33 32 32 31 31 30 30
31 33 34 34 32 31 31 31 31 31 32 33 33 34 35 36 37 38 39 40 40 41 41 40 40 38 37 36 35 34 34 33 33 32 32 32 32 32 31 30 30 29 30
31 33 34 33 32 31 30 30 30 30 31 32 33 35 36 36 37 38 39 40 40 41 42 41 41 40 39 38 36 35 35 34 34 33 32 32 32 31 31 30 30 29 29
Wind_Direction
47 43 38 35 34 34 36 39 42 44 45 44 43 41 40 38 36 36 35 34 34 34 34 36 37 38 38 38 37 37 40 45 49 52 54 57 63 71 80 92 98 101 107
39 34 30 26 25 26 29 31 34 36 37 38 38 38 36 34 32 30 29 28 27 28 28 30 32 34 35 34 33 31 31 35 41 46 50 52 56 66 76 90 100 106 112
33 26 19 17 17 18 20 23 24 25 26 26 27 28 28 27 25 24 22 20 19 19 20 23 26 29 32 34 33 30 27 27 30 35 40 44 47 51 55 65 84 104 111
22 14 7 5 5 7 9 11 12 13 14 14 15 14 13 13 12 12 11 9 8 7 9 12 17 22 26 31 32 30 26 24 22 24 27 29 31 35 34 27 24 51 91
7 358 350 349 351 354 356 358 359 0 1 1 1 1 359 358 358 358 358 357 357 358 358 0 5 11 17 24 28 29 26 23 22 20 17 15 12 11 8 2 349 348 359
344 338 335 334 336 339 342 345 348 349 348 346 344 345 344 344 344 345 346 348 349 350 351 351 352 355 1 8 15 21 23 21 19 19 19 12 3 356 351 344 335 326 319
331 328 328 329 329 329 331 333 335 336 336 334 331 330 330 331 332 332 334 337 340 341 343 342 339 339 340 345 351 358 4 8 7 7 11 10 2 351 340 331 322 313 307
330 329 328 328 327 326 326 325 325 325 323 322 320 319 319 320 321 323 323 325 327 329 331 330 327 324 324 324 326 327 330 335 342 347 352 355 355 351 339 327 319 308 297
333 332 330 328 324 322 320 318 317 316 315 314 312 311 310 310 311 312 313 314 314 315 317 318 317 316 315 312 309 307 306 306 307 312 321 330 335 336 335 327 315 305 297
331 330 328 326 323 319 316 312 311 310 309 306 304 303 302 302 301 303 303 303 303 303 304 306 306 306 305 304 301 298 295 293 292 290 293 299 307 313 318 319 312 302 294
318 319 317 316 314 312 308 304 303 302 301 300 298 297 295 294 294 295 295 295 294 294 295 295 296 296 295 294 294 292 291 289 287 285 282 282 285 289 294 299 301 298 292
309 308 307 305 304 304 301 298 296 296 295 293 292 292 290 288 288 288 288 287 287 287 287 287 287 287 287 287 287 288 288 286 286 284 280 276 275 277 280 283 285 288 288
304 302 299 297 294 294 293 292 291 290 289 289 287 287 285 283 282 281 282 282 282 282 282 282 283 282 282 282 282 282 283 282 282 281 278 275 273 273 273 274 275 276 280
298 297 295 293 292 290 289 287 286 285 285 284 283 282 281 279 277 276 277 278 279 279 279 278 278 277 277 277 277 278 278 278 277 278 276 274 272 271 270 270 270 270 270
294 295 294 295 295 292 290 289 287 284 282 282 280 277 277 276 273 273 273 274 275 276 276 276 276 275 273 273 273 273 273 275 276 275 275 275 274 271 269 268 268 266 265
294 294 295 295 295 295 292 289 291 287 283 280 280 277 275 274 270 269 271 272 274 274 274 275 275 274 272 271 270 269 269 271 273 273 273 273 273 272 270 269 268 265 262
295 296 297 298 297 295 294 293 294 293 289 285 280 279 276 273 270 268 269 270 271 272 273 275 275 276 275 272 270 267 267 267 269 271 271 271 271 271 270 271 269 266 262
299 299 299 298 297 298 298 297 297 296 295 292 286 283 280 274 271 270 269 269 270 272 274 275 275 276 276 275 272 270 268 265 266 268 267 267 268 270 270 271 270 267 263
300 299 300 299 299 300 300 300 299 297 296 294 291 287 285 282 277 273 271 270 270 272 273 274 274 275 278 278 276 272 270 267 265 265 264 264 266 269 270 270 270 267 265
298 298 299 301 303 304 304 304 301 299 297 294 292 290 288 285 281 279 277 273 273 273 274 275 275 276 279 279 279 277 274 271 267 264 264 262 263 267 269 269 268 266 264
297 298 299 301 304 307 308 307 305 304 302 298 294 292 289 287 284 282 280 277 276 276 276 276 277 278 279 280 281 282 278 273 269 267 265 263 263 265 267 268 268 265 263
297 298 301 303 306 308 310 311 310 309 306 303 298 294 291 288 286 283 281 279 278 277 277 277 277 277 279 280 281 280 278 275 272 269 266 267 267 268 268 268 268 265 262
295 298 301 304 308 311 313 314 314 312 310 307 304 300 296 292 288 286 284 281 279 278 278 277 278 277 277 278 279 279 278 276 274 272 271 270 269 270 269 269 267 266 262
294 297 300 304 308 311 313 314 315 314 312 310 308 305 301 296 292 288 284 282 280 278 278 277 278 277 278 279 280 280 279 278 276 272 271 270 270 271 270 268 267 265 262
292 295 298 302 305 308 310 311 313 314 314 313 311 308 305 300 295 290 286 282 279 277 277 276 276 276 277 278 279 280 280 279 277 275 272 270 270 271 270 268 266 265 262
289 291 294 297 299 301 304 307 310 313 315 315 315 313 309 305 299 294 289 284 280 277 275 275 275 275 275 276 277 277 277 277 276 276 274 271 270 270 269 267 265 264 261
Height
5915 5914 5914 5914 5913 5912 5910 5909 5908 5908 5907 5907 5906 5906 5905 5905 5905 5904 5904 5903 5902 5901 5900 5899 5898 5897 5896 5895 5894 5894 5893 5892 5892 5891 5891 5890 5890 5890 5890 5889 5889 5889 5888
5916 5915 5915 5914 5913 5912 5911 5910 5909 5909 5908 5908 5907 5907 5906 5906 5905 5905 5904 5904 5903 5902 5901 5900 5898 5897 5896 5896 5895 5894 5893 5893 5893 5892 5892 5892 5891 5891 5891 5891 5890 5890 5889
5917 5916 5916 5915 5914 5913 5912 5911 5910 5909 5909 5908 5908 5907 5907 5906 5906 5905 5905 5904 5903 5902 5901 5900 5899 5898 5897 5896 5895 5894 5894 5893 5893 5893 5892 5892 5892 5892 5891 5891 5891 5891 5890
5917 5916 5916 5915 5914 5913 5912 5911 5910 5909 5909 5908 5908 5907 5907 5906 5906 5905 5905 5904 5903 5902 5901 5900 5899 5899 5897 5896 5895 5894 5894 5893 5893 5893 5892 5892 5892 5892 5891 5891 5891 5891 5890
5917 5916 5915 5914 5913 5912 5911 5911 5910 5909 5909 5908 5908 5907 5907 5906 5906 5905 5904 5903 5903 5902 5901 5900 5899 5898 5897 5896 5895 5894 5893 5893 5892 5892 5892 5891 5891 5891 5891 5891 5890 5890 5890
5917 5916 5915 5914 5913 5912 5911 5910 5909 5909 5908 5908 5907 5906 5906 5905 5905 5904 5903 5902 5901 5901 5900 5899 5898 5898 5897 5896 5895 5894 5893 5892 5891 5891 5891 5890 5890 5890 5890 5890 5890 5889 5889
5916 5916 5914 5913 5912 5911 5910 5909 5908 5908 5907 5906 5906 5905 5905 5904 5903 5903 5902 5901 5900 5899 5898 5898 5897 5896 5896 5895 5894 5893 5892 5891 5890 5890 5889 5889 5888 5888 5888 5888 5888 5888 5888
5916 5915 5914 5912 5911 5910 5909 5908 5907 5906 5906 5905 5904 5904 5903 5902 5902 5901 5900 5899 5899 5898 5897 5896 5895 5895 5894 5893 5893 5892 5891 5890 5889 5888 5888 5887 5887 5886 5886 5886 5886 5887 5887
5915 5914 5913 5911 5910 5909 5908 5907 5906 5905 5904 5904 5903 5902 5901 5901 5900 5899 5898 5898 5897 5896 5895 5894 5894 5893 5892 5892 5891 5891 5890 5889 5888 5887 5886 5886 5885 5884 5884 5884 5884 5884 5885
5913 5912 5911 5910 5909 5908 5907 5906 5905 5904 5903 5902 5901 5900 5900 5899 5898 5897 5896 5895 5895 5894 5893 5892 5891 5891 5890 5889 5889 5888 5887 5887 5886 5886 5885 5884 5883 5883 5882 5882 5882 5882 5882
5912 5910 5909 5908 5907 5906 5905 5904 5903 5902 5901 5900 5899 5898 5897 5896 5895 5894 5893 5892 5892 5891 5890 5889 5888 5888 5887 5886 5885 5885 5884 5884 5883 5882 5882 5882 5881 5880 5880 5880 5879 5879 5880
5909 5908 5907 5905 5904 5903 5902 5901 5900 5899 5898 5897 5896 5895 5894 5893 5892 5891 5890 5889 5888 5887 5886 5885 5885 5884 5883 5882 5882 5881 5880 5879 5879 5878 5878 5878 5878 5877 5877 5877 5877 5876 5877
5906 5905 5903 5902 5901 5899 5898 5897 5897 5896 5895 5894 5893 5891 5890 5889 5887 5886 5885 5884 5883 5882 5881 5881 5880 5879 5878 5877 5876 5876 5875 5875 5874 5873 5873 5873 5873 5873 5873 5873 5873 5873 5873
5902 5900 5898 5897 5896 5894 5893 5892 5891 5891 5889 5888 5887 5886 5885 5883 5882 5881 5879 5878 5878 5877 5876 5875 5874 5873 5872 5871 5870 5870 5869 5869 5868 5868 5868 5868 5867 5867 5868 5868 5868 5868 5869
5898 5895 5893 5892 5890 5889 5888 5887 5885 5884 5883 5882 5881 5880 5878 5877 5875 5874 5873 5872 5871 5870 5869 5868 5867 5866 5865 5864 5863 5863 5862 5862 5862 5862 5861 5861 5861 5861 5862 5862 5862 5863 5863
5892 5890 5888 5886 5884 5883 5881 5880 5878 5876 5875 5874 5873 5871 5870 5869 5868 5866 5866 5865 5864 5862 5861 5860 5858 5857 5856 5855 5855 5854 5854 5854 5854 5854 5854 5854 5855 5855 5855 5855 5855 5856 5857
5886 5884 5882 5880 5878 5877 5875 5873 5871 5869 5867 5866 5865 5863 5861 5860 5859 5858 5857 5857 5855 5854 5852 5851 5850 5849 5847 5846 5846 5845 5845 5846 5846 5847 5847 5847 5847 5847 5848 5848 5848 5849 5850
5880 5878 5876 5875 5873 5871 5869 5867 5864 5862 5860 5859 5857 5855 5852 5851 5850 5849 5848 5848 5846 5845 5843 5842 5841 5839 5838 5837 5837 5836 5836 5836 5838 5838 5838 5839 5839 5840 5840 5840 5841 5841 5842
5874 5872 5870 5868 5867 5864 5862 5860 5857 5855 5853 5851 5849 5847 5845 5843 5841 5840 5839 5838 5837 5836 5835 5833 5832 5831 5830 5828 5828 5827 5828 5827 5828 5829 5830 5830 5831 5832 5832 5833 5833 5833 5834
5868 5866 5864 5862 5860 5857 5855 5853 5851 5849 5846 5844 5841 5839 5837 5835 5833 5831 5830 5830 5828 5827 5826 5824 5823 5821 5821 5820 5818 5819 5819 5819 5819 5820 5821 5822 5823 5823 5824 5824 5825 5825 5826
5861 5859 5857 5855 5853 5851 5848 5846 5843 5841 5839 5836 5834 5832 5829 5827 5825 5823 5821 5820 5819 5817 5816 5815 5813 5812 5812 5811 5810 5810 5811 5810 5810 5811 5811 5812 5813 5814 5815 5816 5816 5816 5817
5856 5853 5850 5848 5846 5844 5841 5838 5836 5833 5831 5829 5826 5824 5821 5819 5816 5814 5812 5810 5809 5808 5807 5806 5804 5804 5804 5802 5801 5800 5801 5802 5801 5802 5802 5803 5804 5805 5806 5807 5808 5808 5808
5849 5847 5844 5841 5839 5836 5834 5831 5828 5826 5823 5821 5818 5815 5812 5810 5807 5805 5803 5801 5799 5798 5797 5796 5795 5794 5794 5793 5792 5792 5792 5793 5793 5794 5794 5795 5796 5797 5797 5798 5799 5799 5800
5843 5840 5837 5835 5832 5830 5827 5824 5821 5819 5816 5813 5810 5807 5804 5801 5798 5795 5793 5791 5789 5788 5787 5786 5785 5785 5785 5784 5783 5783 5783 5784 5784 5785 5786 5786 5787 5788 5788 5789 5790 5791 5791
5837 5834 5831 5828 5826 5824 5821 5819 5815 5812 5809 5805 5802 5798 5795 5791 5788 5785 5783 5781 5779 5778 5776 5776 5775 5775 5775 5775 5775 5774 5774 5774 5775 5775 5776 5777 5777 5779 5779 5781 5782 5782 5783
5831 5828 5825 5823 5820 5818 5816 5813 5810 5806 5802 5798 5794 5790 5786 5782 5778 5775 5772 5770 5768 5767 5765 5765 5765 5765 5765 5765 5765 5765 5765 5765 5765 5765 5766 5767 5768 5769 5771 5772 5773 5774 5775